Regional Weather Roundup
Issued by NWS Sterling, VA

Home | Current Version | Previous Version | Text Only | Print | Product List | Glossary On
Versions: 1 2 3 4 5 6 7 8 9 10 11 12 13 14 15 16 17 18 19 20 21 22 23 24 25 26 27 28 29 30 31 32 33 34 35 36 37 38 39 40 41 42 43 44 45 46 47 48 49 50
000
ASUS41 KLWX 251111
RWRLWX

REGIONAL WEATHER ROUNDUP
NATIONAL WEATHER SERVICE BALTIMORE MD/WASHINGTON DC
700 AM EDT SAT APR 25 2015

Note: "FAIR" indicates few or no clouds below 12,000 feet
with no significant weather and/or obstructions to visibility.
 TC=TEMPERATURE CELSIUS

 * =Non NWS site. Station does not report precipitation (e.g. rain,
    snow, etc.), thunder, or fog.

DCZ001-MDZ009-015-VAZ040>042-051-053>054-251200-
WASHINGTON METRO

CITY           SKY/WX    TMP DP  RH WIND       PRES   REMARKS
WASHINGTON NAT CLOUDY    47  28  47 NE6       29.99R
DULLES         CLOUDY    45  20  36 N8        29.97R
ANDREWS AFB    CLOUDY    42  30  62 NE3       29.97R
FT BELVOIR     CLOUDY    47  23  39 E1        29.97S
QUANTICO       CLOUDY    50  22  33 N8        29.98R
COLLEGE PARK*  CLOUDY    43  30  61 CALM      29.98S
LEESBURG*      CLOUDY    45  21  39 N3        29.98S
GAITHERSBURG*  CLOUDY    41  21  45 CALM      30.01R

$$

MDZ006>007-011-014-251200-
BALTIMORE METRO

CITY           SKY/WX    TMP DP  RH WIND       PRES   REMARKS
BWI AIRPORT    CLOUDY    40  31  70 CALM      29.97S
MD SCIENCE CTR   N/A     45  24  43 MISG      29.98S
MARTIN STATE   MOCLDY    41  30  65 CALM      29.99F
ANNAPOLIS      MOCLDY    45  30  55 E5        29.98S
FORT MEADE*    CLOUDY    36  32  87 CALM      30.00S

$$

MDZ012-015-019>023-251200-
MARYLAND EASTERN SHORE

CITY           SKY/WX    TMP DP  RH WIND       PRES   REMARKS
OCEAN CITY     PTCLDY    44  27  51 NE7       29.97R
SALISBURY      MOCLDY    38  32  79 CALM      29.97R
BAY BRIDGE AP*   N/A    N/A N/A N/A CALM      29.99R
EASTON*        PTCLDY    41  34  75 CALM      30.02R

$$

MDZ017>025-251200-
SOUTHERN MARYLAND

CITY           SKY/WX    TMP DP  RH WIND       PRES   REMARKS
PATUXENT RIVER CLOUDY    44  37  76 E9        29.96S
ST INIGOES     CLOUDY    47  37  68 E7        29.97R
LEONARDTOWN*   CLOUDY    43  32  65 E3        29.97S

$$

MDZ003>005-251200-
NORTH CENTRAL MARYLAND

CITY           SKY/WX    TMP DP  RH WIND       PRES   REMARKS
FREDERICK*     CLOUDY    43  16  33 CALM      30.00S
HAGERSTOWN APT CLOUDY    40  18  41 NW6       29.97R
WESTMINSTER*   CLOUDY    37  21  52 CALM      29.95F

$$

MDZ501>502-251200-
WESTERN MARYLAND

CITY           SKY/WX    TMP DP  RH WIND       PRES   REMARKS
OAKLAND*       CLOUDY    34  16  47 CALM      29.92R
CUMBERLAND*    CLOUDY    41  27  56 CALM      30.02R

$$

VAZ025>031-251200-
SHENANDOAH VALLEY

CITY           SKY/WX    TMP DP  RH WIND       PRES   REMARKS
WINCHESTER*    CLOUDY    45  10  24 CALM      29.97R
FRONT ROYAL*   CLOUDY    43  28  56 CALM      29.97R
LURAY*         CLOUDY    43  34  70 CALM      29.96R
NEW MARKET*    CLOUDY    40  32  73 CALM      29.95S
STAUNTON*      CLOUDY    42  35  78 NE5       29.96S
WAYNESBORO*    CLOUDY    43  33  66 CALM      29.92F

$$

WVZ021-048>050-054>055-251200-
EASTERN WEST VIRGINIA PANHANDLE

CITY           SKY/WX    TMP DP  RH WIND       PRES   REMARKS
MARTINSBURG    CLOUDY    43  19  38 N3        29.98R
PETERSBURG*    CLOUDY    37  31  78 CALM      29.98R

$$

VAZ036>039-050-251200-
CENTRAL FOOTHILLS

CITY           SKY/WX    TMP DP  RH WIND       PRES   REMARKS
CHARLOTTESVILL CLOUDY    45  28  51 N3        29.96S
CULPEPER*      CLOUDY    46  27  46 CALM      29.98R
ORANGE*        CLOUDY    43  36  75 CALM      29.99R
GORDONSVILLE*  CLOUDY    42  37  82 CALM      29.96S
WARRENTON*     CLOUDY    46  28  48 NE3       29.96S

$$

VAZ055>057-251200-
NORTH AND CENTRAL PIEDMONT

CITY           SKY/WX    TMP DP  RH WIND       PRES   REMARKS
FREDERICKSBRG* CLOUDY    49  28  44 CALM      29.96S
STAFFORD*      CLOUDY    47  17  30 CALM      30.01R

$$

NCZ024-NYZ072-PAZ021-071-VAZ022-071-251200-
OTHER REGIONAL OBSERVATIONS

CITY           SKY/WX    TMP DP  RH WIND       PRES   REMARKS
NEW YORK CITY  CLEAR     38  22  52 MISG      29.93F
PHILADELPHIA   MOCLDY    41  21  44 W10       29.98R
PITTSBURGH     LGT SNOW  33  32  96 E3        29.96F FOG
ROANOKE        LGT RAIN  48  36  63 NW3       29.95S
RICHMOND       CLOUDY    48  35  60 N6        29.96S
RALEIGH        CLOUDY    50  43  77 CALM      29.93R

$$

ANZ530>537-251200-
MARINE OBSERVATIONS

STATION/POSITION TIME  TEMP    WIND        PRES
                       AIR SEA DIR/SP/G
                 (UTC) (F)     (DEG/KT/KT) (MB)
THOMAS PT LIGHT  1100   44 53   90/  8/  9 1015.9R
BALT KEY BRIDGE  1000   43      30/  5/  6 1015.1R
COVE POINT       1000   44     100/ 13/ 16 1015.1R
LEWISETTA        1000   50 57              1014.1R
SOLOMONS ISLAND  1000      55                N/A
PINEY POINT      1000           90/  7/  9   N/A

$$



USA.gov is the U.S. government's official web portal to all federal, state and local government web resources and services.